Aeroporto :
LOGIN :

Iscrizione | Disclaimer

   EN    FR    IT 

 










Sommario :    VFR   VFR Marginale   IFR   IFR Intensivo   IFR Molto Intensivo
Visibilità : 
Base nubi : 
>= 8 km
>= 3000ft
5 / 8 km
1000 / 3000 ft
1500m / 5 km
500 / 1000 ft
800 / 1500m
200 / 500 ft
< 800m
< 200 ft
Simboli :   Temporali  Nebbia  Neve Forte  Precipitazioni Forti  Vento > 20 kt
SIGMETs :   Varie  Temporali  Ghiacco  Turbolenza  Onda orograficha  Ceneri Vulcaniche






- Altitudine del aeroporto : 13 ft
- Codice IATA : LYX


EGMD - Lydd

ULTIMO METAR :
  • 191550Z 04015KT CAVOK 20/15 Q1015

METARs OBSOLETI :
  • 191520Z 05015KT CAVOK 20/15 Q1015
  • 191450Z 05017KT CAVOK 21/15 Q1015
  • 191420Z 06015KT CAVOK 20/16 Q1015
  • 191350Z 07016KT CAVOK 20/15 Q1015
  • 191320Z 07016KT CAVOK 20/15 Q1015

TAF TAF EGMD
Valido dal 19 a 15 ore il 20 a 00 ore UTC


191353Z 1915/1924 08018KT 9999 FEW045
ATIS : +44 1797 322 422



MetMap, La meteo Aeronautica in un colpo d'occhio ! - Copyright ORBIFLY Dicembre 2007 - Disclaimer

ORBIFLY MET'MAP TEAM :

Programmazione e sviluppo : Alexandra Zaïnal
Concezione : Baudouin d'Aumeries
Aiuto per la programmazione : Marc-Olivier Méhu
Supporto tecnico e logistico : Manuel Goepfert
Aiuto per la traduzione : Arnaldo La Scala

Contatto : metmap@orbifly.com




FONTI E CREDITI :

   NOAA